Wetbulb
39.96 41.46 41.89 44.41 43.81 43.68 43.17 42.29 41.81 42.83 43.43 43.91 44.09 44.24 44.69 45.28 45.82 45.19 43.83 47.14 43.87 36.42 37.46 42.64 43.16 38.51 37.88 37.49 32.24 35.72 34.36 35.67 34.97 30.97 30.20 30.98 30.45 32.60 31.70 32.67 29.06 27.24 26.66 27.07 29.67 26.01 23.73 38.83 36.91 31.38 36.15 39.05 38.74 37.69
39.85 40.62 43.47 43.87 43.30 43.19 42.76 42.74 42.94 42.79 42.78 44.65 44.57 44.03 44.35 45.80 45.59 45.02 40.58 45.93 46.39 38.98 37.20 41.97 41.76 43.98 42.53 41.96 37.85 38.05 36.71 36.77 37.67 34.66 35.33 34.66 31.81 34.31 32.79 27.13 35.04 28.82 32.66 30.60 31.68 31.87 38.50 39.91 39.10 40.50 39.99 38.49 38.86 37.92
39.60 40.43 43.97 43.24 43.19 43.33 42.10 41.85 42.08 41.67 44.64 44.69 45.00 45.52 44.73 44.78 45.79 45.92 43.94 43.98 42.24 37.72 38.02 38.41 37.74 42.68 46.53 46.13 46.55 37.67 40.28 40.67 41.23 43.71 39.29 36.54 31.33 36.17 30.21 31.97 33.03 35.77 38.29 34.82 33.75 36.11 37.34 38.40 39.84 40.20 40.20 39.57 39.73 39.17
39.66 40.75 44.31 43.74 43.13 43.22 43.01 42.26 42.22 42.85 44.63 44.24 44.71 44.90 45.44 45.69 46.09 47.23 44.33 45.79 43.32 39.77 33.95 33.94 43.33 41.74 46.33 47.36 46.98 46.85 43.38 44.46 44.21 43.25 38.70 36.38 32.53 37.78 34.11 35.44 34.53 36.21 36.99 34.16 34.07 36.43 37.79 38.53 39.33 40.02 39.29 39.52 38.92 37.72
39.38 42.18 43.63 43.64 43.45 43.29 43.57 43.16 41.67 44.01 44.29 44.76 44.49 44.29 45.33 45.54 45.87 46.24 45.83 46.14 45.94 39.40 32.26 34.95 41.62 44.10 45.88 45.82 44.85 45.41 44.13 42.57 39.93 37.28 36.53 33.44 36.28 36.17 36.84 36.67 34.09 37.75 35.18 33.04 33.13 38.23 37.48 37.64 40.07 40.19 38.25 36.61 36.68 36.25
40.07 41.90 43.33 43.14 43.28 43.49 43.43 43.96 44.20 44.15 44.34 44.30 44.90 44.69 44.15 43.57 45.88 44.58 38.23 43.98 46.44 45.22 36.94 29.55 38.02 39.95 43.18 44.14 43.28 42.17 42.58 41.98 40.85 38.00 35.77 37.03 37.90 36.96 32.54 30.91 35.11 37.58 38.30 38.94 35.89 39.38 39.46 40.09 40.03 39.50 36.44 34.98 34.64 32.28
40.31 41.44 43.54 43.25 43.12 43.06 43.66 43.91 43.92 43.98 43.86 43.86 43.82 43.79 44.25 43.84 45.16 40.88 37.95 40.85 43.39 45.87 39.58 31.82 30.49 37.47 40.68 41.09 41.00 40.85 42.51 40.61 39.92 37.59 36.20 35.51 35.56 37.75 34.48 29.31 34.42 36.87 37.90 38.94 40.16 38.90 35.60 36.02 33.76 36.00 34.97 33.60 32.96 33.71
41.00 41.46 43.70 43.41 43.36 42.62 43.17 43.60 44.09 43.88 43.90 43.83 44.13 44.58 44.32 43.97 43.63 40.07 42.14 44.08 44.77 41.33 39.55 31.15 29.23 33.18 40.08 35.52 34.61 40.70 37.50 38.41 37.67 36.25 37.33 35.16 35.26 36.59 30.79 34.39 36.57 38.07 38.40 38.33 38.41 38.96 36.74 34.63 34.24 33.65 34.53 34.18 32.77 32.18
40.45 40.61 43.56 43.50 43.33 43.34 43.63 43.60 43.87 42.73 41.32 41.71 43.71 44.45 44.79 43.05 40.33 39.95 41.42 43.25 47.56 42.23 34.15 33.81 29.40 26.59 39.11 35.62 36.81 36.91 38.25 31.70 38.19 33.84 34.12 35.38 32.21 29.92 33.48 34.63 36.12 37.24 36.79 35.64 36.81 36.53 36.10 34.45 33.91 33.58 32.80 31.78 30.71 29.77
40.75 40.58 43.60 43.31 43.32 42.89 43.46 43.33 43.39 41.13 41.86 42.82 43.62 40.16 34.01 38.85 40.89 42.10 42.42 38.82 38.60 38.83 37.90 32.89 35.35 30.31 35.89 34.68 33.27 33.44 36.46 32.09 29.01 33.13 36.36 34.25 31.49 35.23 37.24 38.50 38.59 38.24 38.05 37.16 33.53 32.06 32.66 31.91 32.37 31.38 30.26 29.73 28.89 27.93
41.02 41.01 42.90 43.43 43.33 43.18 43.72 43.56 41.69 41.45 44.06 42.25 37.71 35.72 40.91 41.24 41.59 38.36 33.43 32.97 33.88 30.54 34.57 34.87 34.67 32.02 38.68 32.13 31.16 36.26 32.19 33.09 27.67 30.12 31.73 30.16 30.64 31.78 36.10 36.15 37.64 37.97 37.85 36.62 36.72 36.25 35.73 34.45 32.17 30.05 28.04 27.36 27.19 26.56
41.13 41.04 42.33 43.78 43.58 43.85 43.69 42.25 42.25 43.69 42.28 41.34 40.24 41.75 41.25 37.59 34.87 31.20 28.11 30.30 29.80 26.84 33.30 32.45 33.88 35.74 36.95 39.69 33.71 34.51 28.95 32.10 24.93 34.64 30.18 27.77 29.15 33.48 33.12 33.25 34.32 35.33 34.97 33.72 33.80 31.77 31.18 30.42 30.43 28.68 26.34 24.13 22.49 21.86
41.50 41.86 42.38 43.96 44.02 43.87 42.69 42.37 42.72 42.24 42.64 43.61 38.93 33.93 35.05 32.54 27.66 26.89 22.26 25.76 27.42 31.51 33.97 34.57 32.91 36.15 36.97 37.20 31.14 30.69 27.84 26.87 33.21 28.63 27.78 31.50 32.19 33.09 32.18 32.75 32.57 33.47 32.58 31.14 29.63 29.13 27.82 25.83 25.39 23.87 21.48 22.16 22.24 21.82
41.73 42.26 42.77 43.88 43.92 43.12 42.76 41.48 41.10 42.67 42.45 37.22 34.27 26.19 29.73 27.55 28.37 29.91 30.55 30.83 34.24 35.07 36.31 35.49 35.03 34.71 35.49 31.30 31.32 26.68 28.07 30.33 25.58 24.39 26.29 31.54 31.60 30.19 31.73 32.03 30.58 28.95 27.50 26.65 25.24 24.04 21.44 19.99 19.33 20.12 20.37 21.51 21.29 20.29
41.34 42.22 42.95 42.07 42.00 41.33 40.74 40.59 41.10 43.24 39.12 32.73 33.25 26.08 26.17 29.37 30.77 31.09 34.59 35.55 38.02 39.21 36.72 35.61 35.42 35.35 32.15 29.57 30.51 28.53 25.60 23.73 27.15 28.17 32.02 32.80 30.79 30.31 30.01 29.31 26.84 24.31 22.43 22.01 21.65 19.93 19.00 19.46 19.72 19.39 20.40 21.27 20.58 19.11
40.45 40.48 39.32 40.95 41.15 40.99 41.10 42.29 43.37 42.55 37.01 32.50 31.07 28.74 31.52 30.48 30.17 32.39 34.55 35.40 39.42 38.58 38.95 37.00 31.40 29.65 28.22 30.15 26.34 25.54 25.68 24.94 30.14 32.54 33.09 32.27 30.26 29.20 28.11 27.26 25.51 24.31 23.42 21.96 20.67 20.36 19.71 18.38 18.71 19.45 19.33 19.32 18.92 18.64
39.93 36.89 40.24 40.30 40.34 40.59 40.44 41.48 40.49 33.64 31.77 29.80 28.22 32.60 34.05 34.29 31.97 31.93 36.40 36.51 40.25 37.85 33.79 33.48 27.29 24.53 32.86 27.98 26.23 32.20 29.49 31.83 32.71 33.05 34.07 32.46 29.18 28.12 26.92 25.17 23.10 22.82 22.35 21.86 21.19 20.80 20.82 21.69 19.84 19.91 19.00 19.78 20.85 19.40
37.26 39.39 39.55 39.82 41.01 39.52 40.16 38.98 34.86 31.62 26.19 29.08 28.58 28.18 30.52 33.21 31.07 32.68 35.64 38.30 38.43 36.92 36.40 31.57 35.32 28.39 26.98 24.31 27.96 33.69 32.64 31.78 32.11 32.14 30.27 30.01 29.09 27.23 26.14 24.26 23.09 23.30 22.82 21.93 21.88 21.69 21.25 20.19 21.74 22.79 22.34 21.65 21.13 20.36
37.80 38.89 38.58 39.20 40.53 39.53 34.04 33.93 36.17 26.83 26.72 28.05 28.90 30.15 31.29 31.18 33.06 35.31 36.27 36.82 39.22 40.99 38.08 35.75 30.21 30.05 31.28 34.79 35.14 33.90 32.13 32.16 29.14 28.86 28.92 28.88 27.94 26.67 25.05 23.92 23.78 23.59 22.62 22.49 23.13 23.94 24.27 24.51 26.15 25.20 24.70 23.36 23.21 23.24
38.68 38.78 38.46 38.73 39.97 36.58 30.94 31.84 37.96 30.44 27.87 27.42 29.64 28.82 30.36 30.01 30.96 33.43 35.09 36.79 37.42 36.50 32.62 31.35 32.47 33.98 34.89 34.86 34.81 36.00 34.09 32.97 29.66 26.20 25.54 26.16 26.46 25.74 24.82 24.65 25.55 25.01 24.37 24.40 25.18 24.78 24.28 24.51 25.53 25.60 25.82 24.95 23.47 22.31
37.59 37.84 38.59 39.67 38.46 36.57 32.94 31.75 29.70 29.61 28.80 27.06 28.44 29.88 27.72 32.25 30.91 31.42 31.91 35.22 34.34 32.79 32.38 35.76 35.59 33.25 31.63 31.09 34.03 34.14 32.69 33.09 32.18 31.92 28.69 25.67 27.19 27.85 26.12 27.31 26.14 26.42 25.65 25.51 24.25 24.17 24.41 24.80 25.07 25.10 23.90 24.24 25.13 24.46
37.81 37.86 39.74 38.81 35.03 33.60 31.09 33.39 30.92 31.83 29.10 28.33 29.27 30.05 27.76 28.05 28.42 30.72 32.88 32.21 32.41 34.53 35.67 36.11 35.37 32.36 31.04 29.35 29.76 33.87 32.77 35.17 34.74 32.87 30.51 28.62 27.16 26.36 26.73 26.70 26.38 25.62 26.00 26.10 26.03 24.70 25.35 25.64 25.17 24.39 24.02 23.51 22.85 23.05
37.86 38.46 35.51 34.24 29.96 29.83 27.15 34.40 28.95 29.66 26.04 26.51 30.40 26.85 26.62 27.36 29.13 32.77 28.60 31.32 33.47 32.24 32.92 32.32 29.35 30.61 29.80 27.09 28.36 30.07 31.37 32.34 31.84 31.28 29.59 29.93 30.13 29.66 28.27 27.40 28.09 26.59 25.95 26.38 27.44 25.76 25.25 24.66 23.78 23.73 24.31 22.68 22.67 22.39
35.77 32.80 30.09 29.63 30.04 25.17 29.62 27.38 31.05 28.11 27.94 27.17 26.88 24.04 24.85 26.40 28.86 27.46 26.79 31.41 31.79 31.10 29.84 26.52 29.65 27.89 27.48 26.82 28.84 28.55 29.82 32.97 31.55 29.97 30.70 29.54 27.92 27.40 28.31 28.02 28.34 28.56 28.51 27.91 26.84 26.20 24.85 24.02 23.10 22.92 22.53 22.36 22.26 21.94
28.61 26.73 29.42 25.37 30.00 26.79 25.31 26.01 26.03 26.62 23.61 25.69 24.37 23.96 24.28 28.19 24.84 25.33 25.25 30.31 31.26 30.80 30.85 29.43 29.13 29.59 30.41 30.53 30.73 30.06 31.33 32.52 30.81 28.90 29.74 30.86 29.54 28.30 27.57 27.87 28.12 28.32 28.87 26.77 25.29 24.88 23.56 23.99 22.88 22.91 22.20 22.09 20.64 20.11
23.92 26.20 26.29 26.26 26.96 26.29 26.38 23.84 24.36 24.97 25.61 24.01 23.63 26.38 27.55 26.21 23.21 23.25 27.01 29.01 28.87 29.33 28.02 27.59 27.30 27.05 27.42 30.34 28.81 28.15 28.49 32.15 32.18 30.00 29.30 30.74 29.54 28.35 26.75 25.17 24.71 24.99 28.30 28.54 26.29 24.42 23.25 22.55 22.55 21.62 21.20 20.97 20.00 20.13
23.98 24.62 28.45 30.91 29.14 29.01 26.84 27.72 28.49 27.10 24.08 23.40 24.62 24.27 24.53 21.78 23.01 25.42 27.86 27.48 28.27 27.21 28.13 28.62 28.00 27.63 28.27 28.42 30.07 30.71 30.54 31.42 31.69 31.23 31.14 30.71 30.54 30.73 29.69 26.77 24.56 27.08 27.51 27.40 26.64 25.47 23.85 22.03 21.92 21.32 21.08 21.96 20.96 19.89
27.06 26.94 25.27 27.04 27.15 27.74 25.67 26.39 25.91 25.06 25.67 27.13 26.72 23.00 22.60 23.60 23.64 24.74 23.83 25.50 26.40 27.25 27.48 27.16 27.53 28.20 28.45 28.35 28.12 27.75 27.12 26.98 28.10 28.66 28.08 27.46 28.07 29.13 29.45 29.59 29.62 26.92 27.90 27.42 27.02 26.33 25.67 24.05 22.84 22.06 21.25 20.51 19.61 20.14
26.00 26.30 26.98 23.66 25.41 25.53 24.03 25.45 25.44 23.97 23.33 27.19 27.75 24.74 23.63 21.61 20.62 21.11 22.46 24.36 26.49 26.79 26.37 25.41 24.82 26.61 26.29 26.30 26.79 26.84 26.17 26.31 24.05 21.13 21.28 22.14 21.57 23.25 26.57 26.60 26.61 26.65 26.22 25.22 23.19 24.20 23.92 23.38 22.27 21.63 20.60 20.27 18.78 18.01
23.29 26.10 25.14 23.41 23.74 23.10 20.82 21.31 22.75 22.59 22.66 24.02 24.92 23.86 23.07 20.19 19.64 21.72 21.32 22.06 22.30 22.84 23.67 24.47 25.37 25.56 24.55 23.96 23.03 23.61 26.99 28.51 29.25 27.50 24.97 24.99 24.76 25.40 25.25 24.59 24.71 24.33 24.41 23.19 21.01 19.61 18.52 18.96 18.34 18.38 17.32 16.06 16.20 14.89
24.61 26.02 23.48 23.96 21.72 21.86 21.12 21.65 22.36 22.58 23.80 23.86 24.49 25.18 21.88 19.20 19.73 19.20 18.11 19.45 21.56 23.49 24.03 23.54 23.69 24.78 24.85 24.87 24.12 22.76 22.36 24.95 23.30 25.79 28.38 30.06 27.84 25.42 24.77 24.49 24.69 24.57 23.63 22.07 20.08 18.26 16.97 16.80 17.14 16.07 15.21 14.66 14.30 14.00
24.48 21.68 22.88 20.11 19.99 20.66 22.73 23.07 22.99 23.16 23.02 23.49 21.25 23.15 20.93 21.55 17.73 16.28 16.51 17.38 18.18 16.95 16.63 19.37 21.06 22.97 23.99 25.42 27.02 26.98 25.24 26.05 23.71 23.41 24.44 25.53 26.02 25.61 24.82 24.14 22.92 22.89 21.84 20.41 18.97 18.16 16.84 17.26 16.98 16.24 15.25 13.92 12.93 13.04
22.17 22.71 21.99 21.90 20.70 19.92 19.94 20.87 19.52 18.68 21.04 19.81 18.04 18.97 17.83 18.41 12.70 14.38 17.57 16.87 15.60 15.21 15.39 16.99 18.56 20.02 21.83 22.43 24.64 24.81 24.88 25.74 24.69 23.27 23.35 24.10 23.58 23.06 23.00 22.01 21.91 21.44 20.11 19.07 18.43 17.36 16.39 15.90 16.03 15.62 15.00 13.65 11.80 10.64
MSLP
1000.01 999.05 997.91 997.15 997.17 997.26 997.41 997.52 997.40 996.74 995.98 995.24 994.33 994.07 993.61 993.90 994.32 994.42 996.76 996.80 996.63 999.42 1001.01 1000.46 1001.08 1002.04 1003.19 1003.42 1003.85 1006.59 1008.06 1008.24 1008.39 1008.26 1008.47 1008.55 1008.58 1008.56 1009.33 1009.87 1010.89 1011.49 1012.02 1012.09 1011.99 1011.93 1011.95 1012.89 1013.76 1013.87 1014.70 1015.42 1016.39 1017.30
999.73 998.78 997.54 997.39 997.56 997.61 997.76 997.64 997.40 996.98 996.11 995.51 995.04 994.84 994.84 995.23 995.31 995.97 997.58 998.17 998.40 999.90 1002.77 1003.13 1003.57 1003.54 1003.64 1003.29 1003.78 1005.46 1005.87 1006.38 1006.99 1007.48 1007.51 1007.80 1007.94 1008.39 1008.74 1009.64 1010.86 1011.24 1011.08 1011.26 1011.85 1011.73 1012.76 1013.20 1013.52 1014.61 1015.06 1015.51 1016.62 1017.60
999.72 998.66 997.54 997.71 997.97 998.01 998.21 998.14 997.93 997.31 996.72 995.85 995.32 995.32 995.68 995.82 996.06 996.64 997.69 998.97 999.54 1001.48 1003.74 1004.22 1004.71 1004.87 1004.09 1004.18 1004.47 1004.73 1005.89 1006.53 1006.54 1006.28 1006.91 1007.76 1008.45 1008.66 1008.70 1009.25 1010.50 1011.06 1011.50 1011.46 1012.25 1013.00 1013.22 1013.91 1014.52 1015.11 1015.66 1016.34 1017.33 1018.07
999.64 998.57 997.73 998.01 998.25 998.38 998.42 998.51 998.21 997.54 997.31 996.88 996.43 996.12 996.41 996.89 997.08 997.76 998.93 999.32 999.06 1000.65 1002.83 1005.25 1005.18 1004.87 1004.59 1004.35 1005.18 1004.80 1006.03 1006.62 1007.02 1007.18 1007.97 1008.48 1008.81 1009.26 1009.08 1009.60 1010.47 1011.43 1012.06 1012.33 1012.60 1013.17 1013.90 1014.49 1015.06 1015.81 1016.69 1017.41 1018.11 1018.95
999.56 998.51 998.20 998.43 998.64 998.80 998.90 999.03 998.69 998.44 998.06 997.74 997.68 997.60 997.87 997.96 998.38 998.91 999.39 999.92 999.76 999.85 1002.75 1004.54 1004.69 1004.91 1004.60 1004.85 1005.27 1005.91 1006.38 1006.54 1007.16 1007.69 1008.26 1008.80 1009.57 1009.85 1010.06 1010.29 1011.44 1011.95 1012.77 1013.09 1012.98 1013.19 1014.03 1014.91 1015.75 1016.74 1017.42 1018.32 1019.08 1019.54
999.45 998.70 998.69 998.96 999.16 999.37 999.47 999.53 999.35 999.16 999.04 998.75 998.68 998.53 998.66 998.75 998.50 998.94 1000.63 1001.39 1001.23 1001.15 1002.28 1005.14 1007.41 1006.47 1006.24 1006.03 1006.20 1006.60 1006.88 1007.20 1007.52 1008.21 1009.11 1010.00 1010.59 1010.44 1010.37 1010.45 1012.10 1012.86 1013.63 1014.06 1014.68 1014.92 1015.45 1016.14 1017.07 1017.61 1018.74 1019.76 1020.41 1021.21
999.65 999.13 999.16 999.55 999.81 999.98 1000.19 1000.20 1000.06 999.81 999.75 999.67 999.39 999.47 999.06 998.99 999.51 1000.57 1002.26 1002.98 1002.76 1002.17 1003.34 1005.81 1007.51 1008.06 1007.77 1007.29 1007.46 1008.00 1008.27 1008.31 1008.53 1009.04 1009.63 1010.09 1010.77 1010.68 1010.59 1010.75 1012.24 1013.14 1014.09 1014.93 1015.61 1016.32 1017.08 1017.89 1018.98 1019.42 1020.09 1020.77 1021.19 1021.31
1000.04 999.63 999.70 1000.04 1000.29 1000.60 1000.72 1000.73 1000.81 1000.78 1000.50 1000.24 1000.13 1000.23 1000.47 1000.39 1000.94 1001.92 1003.27 1003.10 1002.69 1002.45 1003.63 1005.79 1008.00 1008.32 1008.33 1008.19 1008.53 1008.77 1008.94 1009.38 1009.99 1010.27 1010.57 1010.49 1011.20 1011.02 1011.00 1011.86 1012.64 1013.60 1014.49 1015.29 1015.86 1016.54 1017.82 1019.22 1019.90 1020.34 1020.61 1020.87 1021.21 1021.55
1000.60 1000.33 1000.23 1000.61 1000.96 1001.18 1001.34 1001.48 1001.56 1001.51 1001.44 1001.20 1000.89 1000.78 1000.52 1001.30 1002.49 1003.46 1003.81 1003.27 1002.91 1003.48 1004.74 1006.20 1006.88 1008.34 1008.87 1008.87 1009.37 1009.77 1009.77 1010.64 1010.98 1010.78 1010.65 1010.76 1011.33 1011.41 1011.87 1012.62 1013.15 1013.87 1014.51 1015.79 1016.90 1017.60 1018.39 1019.12 1019.77 1020.43 1021.00 1021.56 1021.86 1022.34
1001.08 1000.85 1000.75 1001.12 1001.49 1001.72 1001.92 1002.15 1002.22 1002.07 1002.02 1001.96 1001.83 1002.23 1003.49 1004.14 1004.55 1003.87 1003.40 1003.62 1004.30 1005.16 1005.88 1006.89 1007.34 1008.18 1008.77 1009.22 1010.05 1010.53 1010.41 1010.44 1010.68 1010.98 1011.32 1010.91 1012.46 1013.31 1013.18 1013.28 1014.00 1014.80 1015.62 1016.66 1017.38 1018.16 1018.86 1019.53 1020.30 1021.04 1021.72 1022.47 1023.00 1023.53
1001.52 1001.44 1001.41 1001.71 1002.05 1002.43 1002.70 1002.89 1003.02 1002.86 1002.49 1002.69 1003.27 1003.79 1004.36 1004.70 1004.26 1004.57 1005.20 1005.33 1005.82 1006.63 1007.18 1007.99 1007.98 1008.35 1009.12 1009.11 1010.08 1010.37 1010.59 1010.67 1010.39 1011.42 1011.18 1011.69 1012.52 1014.19 1014.70 1015.22 1015.73 1016.08 1016.59 1017.44 1017.99 1018.58 1019.19 1020.03 1021.04 1022.06 1023.02 1023.71 1024.24 1024.82
1001.97 1002.00 1002.06 1002.22 1002.57 1002.97 1003.40 1003.64 1003.57 1003.27 1003.35 1003.25 1003.49 1004.34 1004.45 1004.47 1004.90 1005.34 1006.09 1006.25 1005.98 1007.03 1007.75 1008.02 1008.40 1008.91 1009.58 1009.44 1010.34 1010.89 1010.95 1010.98 1011.04 1011.55 1011.87 1012.04 1014.34 1015.03 1015.96 1016.69 1017.20 1017.67 1018.29 1018.99 1019.67 1020.38 1021.16 1021.82 1022.48 1023.29 1024.18 1025.11 1025.94 1026.54
1002.53 1002.42 1002.39 1002.59 1003.10 1003.55 1003.92 1004.13 1004.13 1004.21 1003.84 1003.42 1003.74 1004.75 1004.79 1005.47 1005.45 1005.33 1005.97 1006.27 1006.63 1007.48 1007.99 1008.28 1008.76 1009.12 1010.02 1010.37 1011.14 1011.30 1011.38 1011.86 1012.22 1012.14 1011.85 1012.99 1014.67 1015.79 1016.87 1017.61 1018.32 1018.96 1019.78 1020.55 1021.28 1022.05 1022.88 1023.75 1024.42 1025.12 1025.82 1026.40 1026.82 1027.16
1003.10 1002.89 1002.84 1003.12 1003.68 1004.25 1004.58 1004.79 1004.85 1004.44 1003.68 1003.81 1004.33 1005.42 1005.87 1006.23 1006.54 1006.50 1006.03 1006.34 1006.84 1007.17 1007.64 1008.32 1008.58 1008.98 1010.16 1010.68 1011.25 1011.50 1012.40 1012.31 1012.08 1011.97 1012.28 1013.85 1015.33 1016.78 1017.67 1018.64 1019.51 1020.40 1021.39 1022.07 1022.85 1023.75 1024.68 1025.40 1026.03 1026.64 1026.97 1027.24 1027.48 1027.91
1003.78 1003.70 1003.88 1004.27 1004.58 1005.10 1005.41 1005.49 1005.26 1004.72 1004.80 1005.08 1005.15 1006.52 1007.49 1008.26 1008.39 1008.38 1007.81 1007.29 1007.48 1007.51 1007.85 1008.20 1008.48 1009.12 1009.96 1010.91 1011.17 1011.79 1012.31 1011.98 1011.72 1011.77 1013.14 1014.67 1016.33 1017.53 1018.69 1019.74 1021.02 1022.12 1023.02 1023.65 1024.37 1025.11 1025.81 1026.32 1026.77 1027.26 1027.64 1027.87 1028.32 1028.74
1004.57 1004.88 1005.42 1005.47 1005.69 1006.01 1006.12 1005.89 1005.71 1005.58 1006.07 1006.65 1007.48 1008.18 1008.58 1008.72 1009.27 1009.06 1008.64 1008.29 1008.09 1007.88 1007.94 1008.18 1008.72 1009.52 1010.19 1010.46 1010.88 1011.16 1011.42 1011.57 1012.17 1013.20 1014.33 1015.73 1017.11 1018.46 1019.66 1020.84 1021.98 1022.85 1023.51 1024.29 1025.14 1025.81 1026.42 1026.93 1027.29 1027.76 1028.26 1028.58 1028.89 1029.13
1005.05 1005.85 1006.33 1006.45 1006.61 1006.76 1006.47 1006.23 1006.25 1007.21 1007.60 1008.19 1009.28 1009.48 1009.25 1009.35 1009.85 1010.00 1009.66 1009.05 1008.81 1008.54 1008.44 1008.70 1009.26 1009.89 1010.37 1010.40 1010.70 1010.91 1011.86 1012.72 1013.59 1014.43 1015.29 1016.65 1017.97 1019.16 1020.44 1021.63 1022.63 1023.33 1024.05 1024.79 1025.47 1026.10 1026.62 1027.07 1027.71 1027.90 1028.18 1028.68 1028.83 1029.30
1006.21 1006.84 1007.03 1007.23 1007.12 1007.16 1007.35 1007.23 1007.59 1008.28 1009.28 1009.98 1010.03 1010.73 1010.72 1010.61 1010.88 1010.85 1010.62 1010.34 1009.63 1009.14 1008.77 1009.19 1009.68 1010.01 1010.42 1010.67 1010.86 1011.93 1013.30 1014.27 1015.00 1015.68 1016.78 1017.85 1018.97 1020.18 1021.18 1022.03 1022.94 1023.61 1024.33 1025.03 1025.62 1026.21 1026.75 1027.14 1027.12 1027.18 1027.72 1028.34 1028.74 1029.12
1007.19 1007.51 1007.69 1007.68 1007.45 1007.58 1008.08 1008.30 1008.29 1009.20 1010.49 1011.12 1011.52 1011.46 1011.46 1011.77 1011.75 1011.51 1011.37 1011.22 1010.46 1009.95 1009.89 1009.87 1010.40 1010.43 1010.95 1011.45 1012.15 1012.98 1013.97 1014.81 1015.80 1016.81 1017.89 1018.95 1019.85 1020.73 1021.61 1022.48 1023.16 1023.80 1024.45 1025.04 1025.49 1025.70 1026.09 1026.34 1026.11 1026.68 1027.15 1027.85 1027.74 1028.28
1007.93 1008.17 1008.26 1008.19 1007.96 1007.60 1008.35 1009.15 1009.12 1009.66 1010.51 1011.64 1011.94 1011.90 1012.03 1012.38 1012.61 1012.33 1012.05 1011.66 1010.93 1010.59 1010.76 1010.88 1011.19 1012.18 1012.77 1013.37 1013.67 1013.77 1014.45 1015.21 1016.14 1017.21 1018.49 1019.61 1020.52 1021.23 1021.91 1022.42 1022.92 1023.72 1024.32 1024.87 1025.12 1025.45 1025.97 1026.19 1026.38 1026.67 1026.93 1027.24 1027.64 1028.12
1008.73 1008.99 1008.85 1008.51 1008.31 1008.36 1009.09 1009.46 1009.93 1010.60 1011.21 1011.69 1012.11 1011.97 1012.58 1012.43 1012.55 1012.52 1012.38 1012.22 1011.73 1011.44 1011.40 1011.78 1012.69 1013.73 1014.45 1014.85 1014.84 1014.84 1015.27 1015.62 1015.94 1016.48 1017.70 1019.12 1020.29 1020.86 1021.73 1022.19 1023.03 1023.33 1023.72 1024.24 1024.78 1025.25 1025.59 1025.75 1026.34 1026.87 1027.50 1027.63 1027.89 1028.22
1009.14 1009.22 1008.84 1008.99 1008.65 1009.04 1009.74 1009.99 1010.12 1010.68 1011.29 1011.72 1011.98 1012.20 1012.48 1012.63 1012.72 1012.75 1012.81 1012.45 1012.15 1012.19 1012.68 1013.03 1013.69 1014.46 1015.01 1015.51 1015.72 1015.61 1015.99 1016.12 1016.35 1016.90 1017.91 1019.05 1019.69 1020.52 1021.15 1021.89 1022.43 1022.84 1023.33 1023.86 1024.27 1024.98 1025.28 1025.83 1026.47 1027.03 1027.48 1027.98 1028.33 1028.50
1009.13 1009.01 1008.99 1009.01 1009.25 1009.53 1010.82 1010.60 1010.34 1010.55 1011.06 1011.72 1011.65 1012.06 1012.61 1012.83 1013.08 1013.19 1012.76 1012.57 1012.67 1013.63 1013.98 1014.37 1015.07 1015.26 1015.44 1016.22 1016.42 1016.47 1016.69 1016.58 1016.80 1017.39 1018.24 1018.80 1019.45 1020.20 1020.83 1021.61 1021.99 1022.46 1022.89 1023.57 1024.08 1024.82 1025.34 1025.99 1026.74 1027.13 1027.50 1028.02 1028.28 1028.54
1009.41 1009.40 1009.39 1009.31 1009.35 1010.21 1010.59 1010.31 1010.17 1010.54 1011.05 1011.25 1011.49 1012.13 1012.71 1013.05 1013.41 1013.09 1012.55 1012.39 1013.30 1014.05 1014.48 1015.17 1015.22 1015.61 1016.08 1016.35 1016.26 1016.60 1016.88 1016.48 1017.01 1017.79 1018.28 1018.73 1019.36 1020.12 1020.72 1021.30 1021.80 1022.25 1022.62 1023.27 1023.97 1024.62 1025.44 1026.16 1026.71 1027.13 1027.50 1027.69 1027.92 1028.14
1009.53 1010.37 1010.11 1009.99 1009.97 1010.07 1010.20 1010.27 1010.42 1010.52 1010.98 1011.42 1011.83 1012.34 1012.90 1013.18 1012.92 1012.74 1012.66 1012.77 1013.55 1014.14 1014.61 1015.19 1015.32 1015.39 1015.25 1015.51 1015.75 1016.35 1016.88 1016.56 1016.84 1017.47 1018.26 1018.54 1019.15 1019.99 1020.66 1021.20 1021.73 1022.18 1022.74 1023.43 1024.02 1024.66 1025.48 1025.94 1026.59 1026.81 1027.22 1027.45 1027.73 1028.01
1009.86 1010.64 1010.35 1010.07 1010.09 1009.85 1010.02 1010.17 1010.36 1010.61 1011.02 1011.50 1012.06 1012.58 1012.97 1012.97 1013.06 1012.78 1012.97 1013.83 1014.42 1014.86 1015.37 1015.59 1015.58 1015.59 1015.62 1015.42 1015.75 1016.31 1016.90 1016.88 1016.93 1017.33 1018.21 1018.51 1019.08 1019.62 1020.17 1020.81 1021.46 1022.27 1022.84 1023.34 1023.86 1024.51 1025.18 1025.87 1026.25 1026.64 1027.05 1027.36 1027.72 1027.92
1010.16 1010.56 1010.61 1010.81 1010.47 1010.30 1010.62 1010.90 1010.97 1011.11 1011.39 1011.61 1012.19 1012.80 1013.05 1013.04 1013.14 1013.85 1014.67 1015.52 1015.49 1016.16 1016.20 1016.11 1015.98 1015.88 1015.80 1015.96 1016.05 1016.36 1016.99 1017.15 1017.27 1017.44 1018.25 1018.79 1019.33 1019.68 1020.22 1020.67 1021.22 1021.87 1022.91 1023.34 1023.88 1024.35 1024.90 1025.66 1026.05 1026.50 1026.85 1027.14 1027.68 1028.13
1010.97 1011.09 1010.89 1011.16 1011.02 1011.21 1011.13 1011.38 1011.60 1011.75 1012.02 1012.14 1012.44 1012.78 1013.13 1013.68 1014.65 1015.83 1016.63 1017.05 1017.05 1016.86 1016.75 1016.79 1016.80 1016.71 1016.59 1016.80 1017.20 1017.56 1018.00 1018.52 1018.55 1018.75 1019.41 1019.95 1020.28 1020.55 1020.86 1021.21 1021.49 1022.16 1022.93 1023.48 1023.94 1024.39 1024.72 1025.28 1025.75 1026.22 1026.60 1027.06 1027.68 1028.19
1011.57 1011.76 1011.65 1011.43 1011.56 1011.85 1012.32 1012.37 1012.52 1013.23 1013.69 1013.12 1012.84 1013.54 1014.55 1016.20 1017.58 1017.84 1018.02 1017.93 1017.67 1017.33 1017.08 1017.24 1017.54 1017.65 1017.76 1017.92 1018.09 1018.35 1018.60 1018.71 1018.81 1019.09 1019.38 1019.83 1020.68 1021.29 1021.52 1021.98 1022.32 1022.71 1023.28 1023.93 1024.45 1024.74 1025.11 1025.50 1025.95 1026.30 1026.79 1027.20 1028.15 1028.72
1012.27 1012.34 1011.88 1011.99 1012.10 1012.68 1013.94 1014.43 1014.43 1014.91 1014.87 1014.79 1014.74 1015.15 1016.02 1017.69 1018.97 1019.26 1019.05 1018.77 1018.45 1018.26 1018.21 1018.05 1017.92 1017.87 1017.92 1018.10 1018.37 1018.65 1018.77 1018.81 1018.80 1018.76 1018.82 1019.05 1019.70 1020.74 1021.51 1022.06 1022.49 1023.10 1023.67 1024.27 1024.88 1025.52 1025.97 1026.32 1026.78 1027.10 1027.53 1028.03 1028.48 1028.94
1012.99 1012.56 1012.48 1012.69 1013.30 1014.38 1015.16 1015.65 1015.73 1015.71 1015.50 1015.41 1015.61 1015.51 1016.48 1018.10 1019.37 1020.15 1020.37 1020.11 1019.55 1019.06 1018.70 1018.54 1018.44 1018.41 1018.29 1018.23 1018.28 1018.54 1018.82 1019.34 1019.54 1019.36 1019.13 1019.19 1019.82 1020.69 1021.44 1022.02 1022.57 1023.13 1023.66 1024.25 1024.86 1025.41 1025.91 1026.33 1026.65 1027.11 1027.62 1028.00 1028.43 1028.88
1013.19 1013.19 1013.06 1013.28 1014.18 1015.33 1015.59 1015.40 1015.41 1015.38 1015.57 1015.50 1016.05 1016.51 1017.34 1017.79 1018.89 1020.56 1021.63 1021.29 1020.64 1020.44 1020.42 1019.94 1019.47 1019.08 1019.11 1018.90 1018.77 1018.80 1019.01 1019.07 1019.70 1019.95 1019.99 1020.14 1020.48 1020.99 1021.61 1022.16 1022.85 1023.26 1023.78 1024.39 1025.00 1025.36 1025.84 1026.06 1026.50 1027.02 1027.58 1028.14 1028.74 1029.16
1013.95 1013.95 1014.04 1014.10 1014.51 1014.89 1015.57 1015.43 1015.33 1015.61 1015.78 1016.12 1016.92 1017.48 1018.07 1018.58 1020.07 1021.65 1022.29 1022.51 1022.23 1021.89 1021.57 1021.22 1020.89 1020.57 1020.10 1019.78 1019.48 1019.50 1019.50 1019.61 1019.91 1020.22 1020.47 1020.59 1020.95 1021.51 1022.08 1022.69 1023.06 1023.47 1024.02 1024.52 1024.99 1025.48 1025.85 1026.25 1026.67 1027.18 1027.74 1028.36 1029.06 1029.66
Wind_Speed
21 24 27 10 7 9 9 8 4 7 9 14 13 16 21 20 18 11 7 8 7 7 6 12 25 19 18 13 15 22 13 10 9 9 7 6 6 12 10 13 14 11 10 9 11 10 11 12 10 5 7 7 6 5
20 24 10 12 9 10 12 6 11 9 11 15 12 13 15 24 21 15 9 7 7 10 6 16 14 5 5 14 16 15 10 15 8 10 7 6 6 5 12 9 14 8 6 8 6 3 10 12 7 7 5 5 5 3
19 23 2 13 11 13 12 10 7 5 14 13 13 17 16 11 13 15 14 15 15 12 9 8 13 6 9 13 12 11 9 5 2 4 5 3 4 8 7 6 11 3 6 4 6 8 11 8 7 6 5 5 6 3
18 23 13 13 13 12 13 10 10 10 17 20 20 22 23 23 22 17 10 2 8 8 8 8 8 8 8 14 13 6 13 11 9 7 4 4 4 4 4 7 8 4 8 6 6 9 8 6 6 7 7 4 8 2
17 15 16 14 12 11 12 15 4 8 13 16 17 22 21 23 23 12 8 8 2 6 9 14 20 15 13 15 17 16 15 14 9 4 5 5 4 5 5 4 5 6 4 6 3 10 2 11 8 6 6 5 4 2
16 9 19 14 14 13 13 12 11 11 14 16 16 13 10 4 5 11 8 9 8 8 9 7 4 14 16 17 17 15 10 7 7 4 5 4 3 2 6 4 6 9 7 4 5 7 8 10 8 7 8 6 5 6
14 7 20 16 15 14 14 13 12 13 17 19 21 22 19 21 11 6 6 4 5 5 6 7 5 5 9 12 11 10 9 6 6 5 3 5 5 1 2 5 10 11 11 12 12 12 8 7 5 7 7 6 3 2
9 9 18 17 15 15 12 13 13 12 13 16 17 14 12 21 16 9 8 7 4 6 6 6 5 5 5 6 5 3 5 5 5 4 3 5 5 2 3 12 13 13 13 11 7 8 10 10 9 6 6 4 2 2
10 9 15 18 17 14 12 10 11 12 11 10 10 12 8 8 5 5 12 10 7 6 5 3 7 6 3 6 7 4 3 4 1 3 3 4 4 2 14 12 12 11 8 10 9 10 10 8 8 7 4 1 1 4
10 8 17 18 17 14 9 8 10 9 11 9 8 6 5 4 7 10 3 5 6 5 5 3 7 7 7 5 2 3 1 3 4 4 5 2 8 8 6 10 11 7 13 12 10 9 9 7 6 3 5 6 5 5
11 8 10 18 18 15 10 9 8 3 3 3 3 4 4 3 1 4 4 4 3 5 4 2 10 10 3 6 4 2 3 3 4 4 3 4 5 7 9 9 10 10 9 8 7 7 5 5 6 6 6 6 6 7
9 8 10 16 17 14 12 10 4 3 3 5 8 4 1 2 3 5 4 2 4 5 4 8 9 7 3 0 4 1 3 1 5 5 2 5 5 12 11 11 10 10 11 10 10 11 10 9 7 8 8 8 8 7
9 8 9 15 15 16 11 10 10 10 6 3 3 4 2 3 3 2 5 4 5 6 6 9 8 4 4 4 4 2 3 5 7 2 4 6 11 12 12 11 11 11 11 12 12 12 12 12 10 10 9 7 7 7
12 9 9 17 14 14 14 12 10 5 3 3 2 5 4 4 5 5 9 8 6 10 11 10 5 4 3 4 2 4 4 3 4 4 4 7 13 13 11 11 12 11 10 12 11 12 12 11 10 9 8 6 7 7
18 20 20 21 21 19 14 10 9 5 4 5 4 6 6 5 6 4 5 9 10 9 10 8 5 5 4 4 2 5 4 4 4 3 5 9 14 13 12 12 12 11 10 10 10 10 10 10 10 9 7 8 8 6
16 14 13 18 17 13 11 4 4 2 3 4 7 5 5 8 7 6 7 8 7 7 5 4 4 4 3 4 3 3 5 4 4 6 8 12 14 14 13 12 11 11 11 11 10 11 10 9 9 10 8 7 6 6
11 5 16 17 16 13 13 4 4 6 5 5 4 6 4 7 7 5 5 5 5 3 3 3 3 3 2 2 3 2 2 5 7 7 8 12 14 13 13 12 11 12 12 12 11 11 10 10 9 8 8 7 6 6
8 10 12 11 8 3 3 5 4 5 6 5 4 4 4 4 6 4 3 4 2 2 1 3 3 3 3 4 3 4 5 5 6 7 8 11 12 13 11 13 12 12 12 11 11 10 10 9 8 6 8 7 6 5
11 9 7 6 4 3 3 4 3 4 5 3 3 3 4 4 4 4 4 3 3 2 2 1 3 1 3 4 5 5 7 6 8 8 8 11 12 12 12 12 12 12 12 12 11 8 7 7 3 6 6 6 4 4
15 11 8 7 7 2 5 3 2 4 3 4 3 4 4 4 2 2 3 1 2 1 2 2 2 4 4 3 4 3 6 8 10 10 10 8 9 12 12 11 9 11 10 10 8 7 6 6 5 4 4 4 4 4
6 2 2 3 3 5 4 2 4 3 4 4 4 3 4 3 3 3 2 0 1 0 1 2 3 4 4 3 2 4 6 8 8 7 11 11 10 9 10 9 11 9 9 8 8 7 7 6 6 5 5 4 3 4
3 5 2 1 1 3 4 4 5 4 3 4 4 3 4 3 3 3 2 2 2 1 2 2 3 4 4 3 3 1 7 4 5 9 10 13 11 11 10 10 10 9 8 8 8 7 6 6 6 6 5 5 3 4
2 1 2 1 3 4 4 2 3 3 4 5 4 4 3 3 2 2 2 2 1 3 2 3 4 5 7 5 5 7 6 7 8 8 10 9 9 9 9 10 8 9 8 8 7 7 6 7 7 6 5 6 5 5
2 3 3 3 4 4 2 2 2 4 4 3 3 4 4 3 4 3 3 2 4 3 3 4 4 4 4 5 6 7 8 6 8 8 9 9 9 9 9 9 8 8 7 8 7 7 7 7 8 7 6 6 6 5
2 4 2 4 1 3 4 4 3 3 4 3 4 3 4 4 4 4 3 3 2 1 2 2 3 4 3 5 5 7 6 7 8 9 8 8 9 9 8 8 8 8 7 8 9 9 9 8 8 8 7 6 6 6
3 3 2 2 2 2 3 4 3 4 4 4 3 4 3 3 4 3 2 3 3 3 1 2 3 4 4 4 6 7 7 6 7 8 9 8 9 9 10 10 9 8 7 8 9 10 10 9 8 9 8 7 6 6
2 3 2 2 1 3 3 3 3 3 4 4 5 6 5 5 4 4 4 6 4 5 4 3 2 3 2 3 2 5 6 5 4 6 7 7 7 7 7 9 10 8 9 9 9 9 10 10 9 9 7 6 7 7
3 2 0 3 2 1 2 3 4 3 3 2 5 5 4 0 4 4 5 4 4 4 3 3 4 4 3 4 5 6 6 6 8 9 7 6 5 4 4 3 4 14 9 8 8 7 8 9 8 8 7 6 5 4
1 1 2 3 2 3 4 4 3 3 3 2 1 3 4 5 4 5 5 5 4 3 2 2 3 3 4 4 4 4 6 8 11 12 13 9 8 5 6 6 7 8 7 7 7 6 6 6 6 6 7 6 5 4
3 3 1 2 2 4 4 4 3 3 3 3 2 3 4 4 5 5 6 6 6 5 4 4 2 2 2 3 4 4 4 4 4 6 9 9 8 9 8 8 9 9 8 9 9 9 10 9 8 7 7 7 6 5
2 1 2 3 3 3 3 2 2 1 1 2 2 4 5 5 4 6 8 7 6 4 4 4 2 2 1 2 3 5 5 3 1 4 4 5 9 9 9 9 8 8 8 9 9 9 9 9 8 9 9 8 8 6
2 3 1 2 3 3 2 1 1 1 1 2 3 2 4 4 4 4 7 8 6 6 7 8 7 6 5 4 3 3 6 6 6 4 5 5 6 8 9 8 8 8 9 9 9 9 11 10 8 8 8 8 7 6
1 1 2 2 3 3 2 1 2 3 2 2 3 2 4 5 5 4 4 7 6 6 6 7 6 6 7 4 3 3 3 3 7 7 7 8 10 10 8 7 8 9 11 9 9 9 11 10 9 9 8 8 7 5
Wind_Direction
319 325 320 141 135 128 131 107 176 44 357 24 58 88 91 95 83 81 62 34 104 81 42 147 150 148 156 160 148 147 154 182 179 170 185 186 180 185 181 177 175 171 183 200 224 219 231 134 152 231 87 123 123 140
328 325 334 136 130 122 112 92 60 36 337 5 75 96 90 114 100 97 95 63 72 75 92 81 70 146 59 160 136 158 136 152 158 182 185 180 177 166 174 151 171 186 215 174 220 213 118 163 94 109 93 102 110 100
331 322 240 136 132 115 117 97 82 340 16 45 69 115 118 95 109 106 112 120 105 105 81 87 96 92 205 155 151 133 153 107 117 119 118 113 144 203 173 146 167 171 140 181 150 153 138 132 114 116 109 111 120 89
328 320 143 145 126 113 134 108 32 8 51 56 73 92 99 109 119 105 100 168 106 105 91 96 129 102 121 147 162 178 112 114 134 132 118 143 138 277 157 135 169 150 186 148 130 145 117 159 149 138 118 118 104 58
324 333 124 126 129 113 110 114 185 33 39 45 61 75 86 96 92 86 72 74 136 96 107 103 68 59 94 109 110 126 136 127 141 128 112 86 93 102 125 157 106 161 180 175 165 130 153 133 132 132 137 120 92 48
328 17 131 122 116 113 103 97 74 54 56 63 70 78 86 93 161 95 58 23 82 122 100 72 61 72 85 91 96 98 96 103 111 97 97 83 57 233 181 146 126 103 97 42 112 94 98 99 116 94 102 99 93 75
339 10 138 136 118 104 100 95 86 78 77 73 67 74 83 69 59 47 64 79 322 104 98 94 76 57 78 90 90 90 76 69 87 87 74 122 137 159 181 114 138 135 117 114 109 101 98 75 85 98 118 117 136 72
2 29 139 135 129 118 101 96 96 83 71 56 50 59 96 108 115 63 36 355 309 77 74 86 108 98 8 113 86 54 88 73 36 84 148 115 135 62 105 114 129 131 131 136 125 63 118 127 131 131 144 165 173 7
63 24 150 147 139 133 108 104 94 78 50 43 37 36 47 33 49 63 332 322 49 55 91 98 128 116 105 81 116 83 83 79 64 128 113 172 133 73 122 144 139 140 137 118 117 115 130 131 137 132 127 103 51 51
86 32 152 131 132 127 133 111 95 56 36 30 25 38 57 34 323 296 34 38 37 37 37 68 102 112 131 132 84 101 21 136 137 66 137 203 79 101 87 104 107 118 119 136 136 137 145 141 141 134 90 78 67 58
92 66 85 141 141 149 150 114 92 343 337 56 60 61 72 255 183 32 56 47 102 86 77 73 130 128 110 122 115 23 133 185 146 128 186 154 124 134 120 107 111 111 115 97 95 100 97 131 130 127 101 84 72 60
92 91 80 156 147 149 128 112 29 358 16 60 96 100 69 43 77 83 62 86 57 104 114 126 125 109 73 325 105 65 92 265 83 161 132 166 105 146 138 129 121 117 115 112 106 101 95 92 92 98 93 79 72 78
90 93 69 147 139 132 117 67 71 95 206 95 70 62 351 9 77 69 126 104 112 123 145 139 126 113 119 89 83 97 108 65 135 162 166 60 142 136 139 137 129 116 115 113 104 98 94 87 83 97 102 101 98 93
86 90 95 135 135 119 96 94 21 324 311 49 64 62 14 69 57 29 65 88 110 123 141 131 121 81 132 73 123 84 83 163 165 166 162 134 147 145 147 139 134 122 111 107 105 104 105 106 100 91 84 92 100 95
97 76 99 104 102 87 66 46 14 16 31 36 15 51 61 83 63 66 108 116 119 114 126 124 91 84 71 108 89 120 156 163 200 160 96 125 142 152 144 139 130 128 122 119 119 116 113 114 110 101 94 93 100 104
87 80 96 90 94 61 34 39 24 31 52 44 42 85 104 99 90 88 97 106 133 129 87 68 91 71 68 115 113 168 167 179 119 81 118 141 150 148 148 142 139 138 132 126 125 129 124 123 126 115 108 104 106 106
88 66 103 96 80 57 12 39 33 43 43 35 54 30 69 69 83 104 128 117 129 99 63 94 83 72 136 149 149 145 80 65 114 122 134 138 148 145 141 136 135 135 133 133 132 134 134 125 131 139 136 137 131 109
99 113 98 100 113 39 33 26 66 51 70 30 74 44 54 53 114 100 116 128 151 102 75 58 125 144 155 156 140 121 112 99 114 121 129 135 130 138 142 138 139 140 137 138 137 138 137 151 161 161 131 143 133 135
120 112 101 59 58 85 77 42 12 80 56 69 87 70 78 71 40 54 82 61 46 63 118 56 63 170 85 55 93 118 142 144 137 126 118 126 140 135 133 133 137 140 141 147 152 156 157 185 157 149 153 170 175 161
112 88 74 52 358 65 84 61 350 74 86 97 119 86 57 70 75 19 110 35 176 68 67 63 38 42 38 58 34 119 146 140 138 136 135 138 139 142 143 149 147 142 149 153 164 142 142 160 163 167 163 167 149 157
58 92 81 329 46 49 67 82 58 82 114 78 117 81 89 125 106 130 135 117 239 348 206 89 83 96 71 70 74 126 141 157 162 157 153 149 157 148 152 147 146 160 153 161 159 160 179 164 155 138 161 162 142 141
100 245 101 313 81 91 76 11 110 105 55 126 139 105 118 124 133 142 163 199 226 202 22 47 90 138 136 118 131 175 146 152 93 120 126 141 157 158 163 159 168 165 167 168 173 162 177 152 153 161 156 142 169 160
215 202 83 107 104 70 100 245 116 162 122 142 157 109 113 128 90 202 210 238 118 58 82 84 99 41 94 116 128 131 130 148 140 143 147 161 154 157 157 166 174 171 170 173 169 166 168 154 161 169 159 170 184 166
213 41 33 43 51 95 138 80 101 94 107 143 127 110 131 131 172 210 238 202 87 141 162 152 172 131 127 160 169 164 173 174 140 146 162 155 156 163 164 168 170 176 176 161 169 162 147 170 168 177 179 189 189 195
313 32 358 73 87 126 119 123 119 111 117 147 132 138 151 181 188 196 239 109 100 86 101 173 203 223 221 180 166 154 186 178 162 158 163 171 156 154 163 167 169 172 161 166 171 167 169 166 181 185 183 196 184 206
80 33 10 74 129 130 139 120 133 133 116 129 127 107 174 186 191 210 114 68 54 48 41 243 224 206 230 212 182 170 182 189 173 164 170 175 169 172 170 172 170 171 175 182 171 176 176 177 189 186 192 199 190 209
85 72 71 33 25 117 106 77 112 129 152 158 160 174 183 193 164 88 108 34 28 24 352 331 267 226 249 173 118 113 149 179 190 162 148 157 170 180 175 182 186 172 177 181 176 184 179 185 190 191 201 193 185 216
50 359 264 119 116 2 111 131 160 155 124 132 158 179 172 197 76 55 39 20 5 6 39 53 20 24 46 107 120 134 108 102 96 102 99 77 70 83 111 113 113 136 160 173 174 184 184 181 193 193 200 192 183 197
95 37 275 113 115 86 39 13 71 62 3 284 218 103 89 57 29 15 11 347 345 336 29 87 94 98 95 100 125 145 159 166 159 162 171 164 160 168 161 144 142 142 146 144 142 155 158 168 175 176 175 160 151 177
68 331 12 58 17 71 67 354 67 52 29 25 33 126 113 96 50 24 16 11 11 6 2 352 41 218 164 173 154 162 183 199 227 204 196 189 180 145 158 158 151 150 152 150 139 128 122 121 122 122 132 144 159 158
323 298 81 48 76 64 62 60 119 136 62 63 23 28 84 119 123 53 26 360 343 349 359 19 23 338 281 211 189 186 190 180 32 36 58 99 122 150 160 159 155 155 155 153 149 154 153 159 158 159 166 169 164 173
29 34 39 134 111 101 173 22 68 83 100 140 89 126 147 176 94 68 21 358 13 17 10 358 3 25 11 352 6 62 13 133 154 142 126 131 148 152 154 154 157 161 161 154 161 158 168 168 164 170 170 167 172 179
99 78 70 132 147 145 93 231 116 120 114 88 83 38 42 18 75 60 46 13 360 3 353 347 338 329 335 327 336 95 67 126 141 137 132 135 139 147 149 155 162 157 157 160 157 161 169 169 169 169 169 160 160 167